This is the latest recevied weather packets stored in our database for station/object SP2NBH-2. If no packets are shown the sender has not sent any weather packets the latest 1 day(s).
| Time | Temp. | Humidity | Pressure | Rain* | Wind** | Luminosity | Snow |
|---|---|---|---|---|---|---|---|
| 1778082199 | 8.33° C | 77% | 1009.3 hPa | - | - | - | - |
| 1778081299 | 8.33° C | 78% | 1009.3 hPa | - | - | - | - |
| 1778080399 | 8.33° C | 76% | 1009.4 hPa | - | - | - | - |
| 1778078599 | 8.33° C | 74% | 1009.4 hPa | - | - | - | - |
| 1778072298 | 7.78° C | 76% | 1009.3 hPa | - | - | - | - |
| 1778069598 | 7.78° C | 73% | 1009.7 hPa | - | - | - | - |
| 1778068698 | 7.78° C | 72% | 1009.3 hPa | - | - | - | - |
| 1778067798 | 7.78° C | 73% | 1009.5 hPa | - | - | - | - |
| 1778066898 | 8.33° C | 76% | 1009.4 hPa | - | - | - | - |
| 1778065195 | 7.78° C | 76% | 1009.7 hPa | - | - | - | - |
| 1778064295 | 8.33° C | 77% | 1009.5 hPa | - | - | - | - |
| 1778063395 | 8.33° C | 77% | 1009.6 hPa | - | - | - | - |
| 1778062495 | 8.33° C | 77% | 1009.1 hPa | - | - | - | - |
| 1778061595 | 8.33° C | 77% | 1009.2 hPa | - | - | - | - |
| 1778060754 | 7.78° C | 78% | 1009 hPa | - | - | - | - |
| 1778059828 | 8.89° C | 73% | 1009 hPa | - | - | - | - |
| 1778058894 | 8.89° C | 69% | 1008.7 hPa | - | - | - | - |
| 1778056195 | 8.89° C | 75% | 1009.1 hPa | - | - | - | - |
| 1778055330 | 8.89° C | 76% | 1009.2 hPa | - | - | - | - |
| 1778055295 | 8.89° C | 76% | 1009.2 hPa | - | - | - | - |
| 1778053495 | 8.89° C | 80% | 1009.6 hPa | - | - | - | - |
| 1778052595 | 8.89° C | 81% | 1009.7 hPa | - | - | - | - |
| 1778051695 | 8.89° C | 81% | 1009.7 hPa | - | - | - | - |
| 1778050795 | 8.89° C | 81% | 1009.8 hPa | - | - | - | - |
| 1778049895 | 9.44° C | 82% | 1009.9 hPa | - | - | - | - |
* Rain since midnight (hover to see other rain measurements)
** Current wind speed in m/s (hover to see current wind gust speed)